Location: Homewood
(41.1836°S, 175.9581°E)
Time: 03:50:53
(UTC+00:00)

Hubble Space Telescope - Pass Details

Date: 18 April 2024
Orbit: 511 x 515 km, 28.5° (Epoch: 22 May)

Event Time Altitude Azimuth Distance (km) Brightness Sun altitude
Exits shadow 17:00:05 12° 357° (N) 1,642 3.2 -21.5°
Maximum altitude 17:00:46 12° 8° (N) 1,618 3.2 -21.3°
Drops below altitude 10° 17:02:23 10° 31° (NNE) 1,749 3.7 -21.0°
Sets 17:05:52 0° 62° (ENE) 2,638 5.3 -20.4°
